This demonstration page uses our WeatherBlox Daily Observations layout. Learn more.

Left ArrowRight Arrow

38.89511, -77.03637

Hourly Observations for February 3, 2017

Temp ( °F °C ) Dew Point ( °F °C ) Humidity (%) Winds ( mph kmh ) Pressure ( in mb ) Visibility ( mi km ) Precip ( " mm )
12:52 am 00:52 Mostly Cloudy 36 2.2 13 -10.6 39 39 NNW 13 20 30.25 1024 10 16 0.00 0.00
1:52 am 01:52 Mostly Cloudy 36 2.2 12 -11.1 37 37 NNW 9 15 30.26 1025 10 16 0.00 0.00
2:52 am 02:52 Cloudy 36 2.2 10 -12.2 34 34 NNW 7 11 30.27 1025 10 16 0.00 0.00
3:52 am 03:52 Cloudy 35 1.7 12 -11.1 38 38 NNW 6 9 30.27 1025 10 16 0.00 0.00
4:52 am 04:52 Cloudy 34 1.1 13 -10.6 42 42 N 6 9 30.26 1025 10 16 0.00 0.00
5:52 am 05:52 Cloudy 34 1.1 12 -11.1 40 40 NNW 9 15 30.28 1025 10 16 0.00 0.00
6:52 am 06:52 Cloudy 34 1.1 11 -11.7 38 38 NNW 9 15 30.29 1026 10 16 0.00 0.00
7:52 am 07:52 Cloudy 34 1.1 12 -11.1 40 40 NNW 9 15 30.31 1026 10 16 0.00 0.00
8:52 am 08:52 Mostly Cloudy 35 1.7 12 -11.1 38 38 N 9 15 30.30 1026 10 16 0.00 0.00
9:52 am 09:52 Mostly Cloudy 37 2.8 11 -11.7 34 34 NNW 13 20 30.30 1026 10 16 0.00 0.00
10:52 am 10:52 Cloudy 36 2.2 11 -11.7 35 35 N 7 11 30.29 1026 10 16 0.00 0.00
11:52 am 11:52 Cloudy 38 3.3 11 -11.7 33 33 NW 7 11 30.25 1024 10 16 0.00 0.00
12:52 pm 12:52 Cloudy 38 3.3 11 -11.7 33 33 NW 9 15 30.22 1023 10 16 0.00 0.00
1:52 pm 13:52 Cloudy 39 3.9 12 -11.1 33 33 NW 9 15 30.18 1022 10 16 0.00 0.00
2:52 pm 14:52 Cloudy 39 3.9 11 -11.7 31 31 W 8 13 30.17 1022 10 16 0.00 0.00
3:52 pm 15:52 Cloudy 38 3.3 13 -10.6 36 36 NNW 14 22 30.18 1022 10 16 0.00 0.00
4:52 pm 16:52 Cloudy 37 2.8 12 -11.1 36 36 NNW 12 19 30.19 1023 10 16 0.00 0.00
5:52 pm 17:52 Cloudy 36 2.2 11 -11.7 35 35 NNW 14 22 30.22 1023 10 16 0.00 0.00
6:52 pm 18:52 Cloudy 36 2.2 11 -11.7 35 35 NW 10 17 30.24 1024 10 16 0.00 0.00
7:52 pm 19:52 Mostly Cloudy 36 2.2 11 -11.7 35 35 NW 16 26 30.26 1025 10 16 0.00 0.00
8:52 pm 20:52 Mostly Clear 33 0.6 10 -12.2 38 38 NW 18 30 30.29 1026 10 16 0.00 0.00
9:52 pm 21:52 Mostly Cloudy 32 0 10 -12.2 40 40 NW 16 26 30.32 1027 10 16 0.00 0.00
10:52 pm 22:52 Mostly Cloudy 32 0 11 -11.7 41 41 NW 14 22 30.34 1028 10 16 0.00 0.00
11:52 pm 23:52 Mostly Clear 31 -0.6 9 -12.8 40 40 NW 17 28 30.36 1028 10 16 0.00 0.00

Powered by AerisWeather